Aurora, OR

5:08 AM PDT on April 25, 2017 (GMT -0700)
Aurora State

Weather History for KUAO - August, 2013

Change the Weather History Date:

Tuesday, August 27, 2013

  Actual Average Record
Temperature  
Mean Temperature 70 °F -  
Max Temperature 81 °F - 95 °F (2006)
Min Temperature 61 °F - 46 °F (2000)
Degree Days  
Heating Degree Days 0    
Month to date heating degree days 5  
Since 1 June heating degree days 90  
Since 1 July heating degree days 10  
Cooling Degree Days 6    
Month to date cooling degree days 127  
Year to date cooling degree days 335  
Since 1 June cooling degree days 320  
Growing Degree Days 20 (Base 50)    
Moisture  
Dew Point 58 °F    
Average Humidity 73    
Maximum Humidity 100    
Minimum Humidity 45    
Precipitation  
Precipitation 0.00 in - 0.21 in (1961)
Month to date precipitation 0.30  
Year to date precipitation 13.27  
Sea Level Pressure  
Sea Level Pressure 29.88 in    
Wind  
Wind Speed 2 mph (West)    
Max Wind Speed 8 mph    
Max Gust Speed 12 mph    
Visibility 10 miles    
Events      
T = Trace of Precipitation, MM = Missing Value Source: NWS Daily Summary

Daily Weather History Graph

Daily Weather History Graph

Search for Another Location

Airport or City:

Trip Planner

Search our weather history database for the weather conditions in past years. The results will help you decide how hot, cold, wet, or windy it might be!

Date:

Astronomy

Aug. 27, 2013 Rise Set
Actual Time 6:27 AM PDT 7:56 PM PDT
Civil Twilight 5:56 AM PDT 8:27 PM PDT
Nautical Twilight 5:18 AM PDT 9:04 PM PDT
Astronomical Twilight 4:38 AM PDT 9:44 PM PDT
Moon 11:32 PM PDT (8/27) 1:51 PM PDT (8/27)
Length of Visible Light 14h 31m
Length of Day
13h 29m
Waning Gibbous, 56% of the Moon is Illuminated
Aug 27
Waning Gibbous
Aug 28
Last Quarter
Sep 5
New
Sep 12
First Quarter
Sep 19
Full

Hourly Weather History & Observations

Time (PDT) Temp. Heat Index Dew Point Humidity Pressure Visibility Wind Dir Wind Speed Gust Speed Precip Events Conditions
12:53 AM 61.0 °F - 59.0 °F 93% 29.97 in 10.0 mi Calm Calm - 0.00 in   Scattered Clouds
1:53 AM 62.1 °F - 59.0 °F 90% 29.97 in 10.0 mi Calm Calm - N/A   Overcast
2:53 AM 61.0 °F - 60.1 °F 97% 29.95 in 10.0 mi Calm Calm - N/A   Overcast
3:53 AM 62.1 °F - 59.0 °F 90% 29.95 in 10.0 mi Calm Calm - N/A   Overcast
4:53 AM 62.1 °F - 59.0 °F 90% 29.94 in 10.0 mi Calm Calm - N/A   Overcast
5:53 AM 61.0 °F - 59.0 °F 93% 29.94 in 10.0 mi Calm Calm - N/A   Overcast
6:53 AM 62.1 °F - 57.9 °F 86% 29.95 in 10.0 mi Calm Calm - N/A   Overcast
7:53 AM 62.1 °F - 60.1 °F 93% 29.95 in 10.0 mi Calm Calm - N/A   Overcast
8:53 AM 64.9 °F - 59.0 °F 81% 29.94 in 10.0 mi Calm Calm - N/A   Mostly Cloudy
9:53 AM 69.1 °F - 57.0 °F 65% 29.92 in 10.0 mi North 3.5 mph - N/A   Partly Cloudy
10:53 AM 72.0 °F - 57.0 °F 59% 29.89 in 10.0 mi Calm Calm - N/A   Clear
11:53 AM 72.0 °F - 57.9 °F 61% 29.88 in 10.0 mi Variable 4.6 mph - N/A   Clear
12:53 PM 75.9 °F - 57.9 °F 54% 29.86 in 10.0 mi NNE 5.8 mph - N/A   Clear
1:53 PM 78.1 °F - 57.0 °F 48% 29.84 in 10.0 mi Calm Calm - N/A   Clear
2:53 PM 79.0 °F - 57.9 °F 48% 29.82 in 10.0 mi SW 5.8 mph - N/A   Clear
3:53 PM 80.1 °F 80.4 °F 57.0 °F 45% 29.81 in 10.0 mi Variable 4.6 mph - N/A   Clear
4:53 PM 78.1 °F - 55.9 °F 46% 29.80 in 10.0 mi Variable 3.5 mph - N/A   Clear
5:53 PM 78.1 °F - 57.9 °F 50% 29.81 in 10.0 mi WNW 3.5 mph - N/A   Clear
6:53 PM 77.0 °F - 59.0 °F 54% 29.80 in 10.0 mi Calm Calm - N/A   Clear
7:53 PM 73.9 °F - 60.1 °F 62% 29.81 in 10.0 mi Variable 4.6 mph - N/A   Clear
8:53 PM 71.1 °F - 57.0 °F 61% 29.83 in 10.0 mi WSW 3.5 mph - N/A   Clear
9:53 PM 69.1 °F - 55.0 °F 61% 29.84 in 10.0 mi SW 4.6 mph - N/A   Overcast
10:53 PM 68.0 °F - 55.9 °F 65% 29.85 in 10.0 mi SSW 4.6 mph - N/A   Overcast
11:53 PM 66.9 °F - 57.0 °F 70% 29.86 in 10.0 mi WSW 3.5 mph - N/A   Overcast